Location: doobydoo
(53.3403°N, 2.6908°W)
Time: 14:21:53
(UTC+00:00)

ISS - Pass Details

Date: 24 December 2021
Orbit: 413 x 422 km, 51.6° (Epoch: 19 January)

Event Time Altitude Azimuth Distance (km) Brightness Sun altitude
Exits shadow 05:53:23 23° 186° (S) 945 -2.0 -21.1°
Maximum altitude 05:54:28 28° 153° (SSE) 825 -1.9 -20.9°
Drops below altitude 10° 05:57:22 10° 92° (E) 1,496 0.2 -20.5°
Sets 05:59:42 0° 81° (E) 2,382 1.3 -20.1°
